Simultaneous Nadir Overpasses (SNOs) Predictions

Prediction of SNOs between GOES-16 and AQUA Satellite Orbit:

Table of predicted SNOs for the next 14.0 days since TLE Epoch: 1/6/2017
Index Date Time (GOES-16) GOES-16 Lat,Lon AQUA Lat,Lon Distance(km) Time Diff (sec)
1 01/07/2017 19:30:39 -0.01, -89.48 0.17, -88.53 108.09 80
2 01/08/2017 07:51:55 0.02, -89.48 0.92, -93.69 478.90 80
3 01/09/2017 19:18:29 -0.02, -89.50 0.82, -85.57 446.46 80
4 01/10/2017 07:39:44 0.02, -89.49 0.26, -90.73 140.53 80
5 01/12/2017 07:24:52 0.02, -89.51 -0.34, -87.77 198.17 80
6 01/12/2017 19:48:56 -0.02, -89.53 -0.75, -92.96 390.13 80
7 01/14/2017 19:36:45 -0.02, -89.55 -0.09, -90.00 50.75 80
8 01/16/2017 19:21:53 -0.01, -89.59 0.52, -87.04 289.44 80
9 01/17/2017 07:45:49 0.02, -89.59 0.56, -92.20 296.71 80
10 01/19/2017 07:30:57 0.01, -89.63 -0.05, -89.24 44.09 80




NCC Satellite Simultaneous Nadir Overpasses (SNOs) Prediction Service
